Location: Venise Bay
(45.0825°N, 73.1481°W)
Time: 05:31:19
(UTC-05:00)

ISS - Pass Details

Date: 22 January 2020
Orbit: 416 x 422 km, 51.6° (Epoch: 20 February)

Event Time Altitude Azimuth Distance (km) Brightness Sun altitude
Rises 18:31:23 0° 237° (WSW) 2,368 1.3 -18.5°
Reaches altitude 10° 18:33:28 10° 237° (WSW) 1,505 0.0 -18.8°
Maximum altitude 18:36:51 84° 152° (SSE) 429 -3.9 -19.4°
Enters shadow 18:37:02 78° 91° (E) 436 -3.9 -19.4°
